Change the Weather History Date:

Thursday, July 11, 2013

  Actual Average Record
Temperature  
Mean Temperature 80 °F -  
Max Temperature 86 °F 89 °F 100 °F (1988)
Min Temperature 75 °F 68 °F 53 °F (1961)
Cooling Degree Days 16    
Growing Degree Days 30 (Base 50)    
Moisture  
Dew Point 73 °F    
Average Humidity 81    
Maximum Humidity 96    
Minimum Humidity 56    
Precipitation  
Precipitation 0.00 in - - ()
Sea Level Pressure  
Sea Level Pressure 29.90 in    
Wind  
Wind Speed 2 mph (NW)    
Max Wind Speed 7 mph    
Max Gust Speed -    
Visibility 10 miles    
Events      
Averages and records for this station are not official NWS values.
T = Trace of Precipitation, MM = Missing Value Source: NWS Daily Summary

Daily Weather History Graph

Daily Weather History Graph

Search for Another Location

Airport or City:

Trip Planner

Search our weather history database for the weather conditions in past years. The results will help you decide how hot, cold, wet, or windy it might be!

Date:

Astronomy

Jul. 11, 2013 Rise Set
Actual Time 5:51 AM EDT 8:34 PM EDT
Civil Twilight 5:20 AM EDT 9:05 PM EDT
Nautical Twilight 4:40 AM EDT 9:45 PM EDT
Astronomical Twilight 3:56 AM EDT 10:29 PM EDT
Moon 9:06 AM EDT (7/11) 10:16 PM EDT (7/11)
Length of Visible Light 15h 45m
Length of Day
14h 42m
Waxing Crescent, 10% of the Moon is Illuminated
Jul 11
Waxing Crescent
Jul 15
First Quarter
Jul 22
Full
Jul 29
Last Quarter
Aug 6
New

Hourly Weather History & Observations

Time (EDT) Temp. Heat Index Dew Point Humidity Pressure Visibility Wind Dir Wind Speed Gust Speed Precip Events Conditions
12:10 AM 76.1 °F - 74.3 °F 94% 29.89 in 10.0 mi South 3.5 mph - N/A   Scattered Clouds
12:30 AM 75.7 °F - 74.3 °F 95% 29.88 in 10.0 mi South 4.6 mph - N/A   Overcast
12:50 AM 75.7 °F - 74.7 °F 96% 29.90 in 10.0 mi South 3.5 mph - N/A   Overcast
1:10 AM 76.3 °F - 74.3 °F 94% 29.89 in 10.0 mi SSW 3.5 mph - N/A   Mostly Cloudy
1:30 AM 76.5 °F - 73.9 °F 92% 29.89 in 10.0 mi South 4.6 mph - N/A   Scattered Clouds
1:50 AM 76.1 °F - 73.6 °F 92% 29.88 in 10.0 mi South 4.6 mph - N/A   Scattered Clouds
2:10 AM 76.1 °F - 73.8 °F 92% 29.88 in 10.0 mi SSW 4.6 mph - N/A   Clear
2:30 AM 76.1 °F - 74.3 °F 94% 29.86 in 10.0 mi South 4.6 mph - N/A   Scattered Clouds
2:50 AM 76.3 °F - 73.9 °F 92% 29.86 in 10.0 mi SW 3.5 mph - N/A   Clear
3:10 AM 76.5 °F - 73.4 °F 90% 29.85 in 10.0 mi Calm Calm - N/A   Clear
3:30 AM 76.3 °F - 73.4 °F 91% 29.85 in 10.0 mi Calm Calm - N/A   Clear
3:50 AM 75.9 °F - 73.6 °F 92% 29.85 in 10.0 mi WSW 3.5 mph - N/A   Scattered Clouds
4:10 AM 75.7 °F - 73.4 °F 92% 29.85 in 10.0 mi Calm Calm - N/A   Mostly Cloudy
4:30 AM 75.7 °F - 73.6 °F 93% 29.86 in 10.0 mi Calm Calm - N/A   Overcast
4:50 AM 75.7 °F - 73.8 °F 94% 29.87 in 10.0 mi Calm Calm - N/A   Overcast
5:10 AM 75.9 °F - 73.6 °F 92% 29.86 in 10.0 mi Calm Calm - N/A   Mostly Cloudy
5:30 AM 76.1 °F - 73.8 °F 92% 29.87 in 10.0 mi Calm Calm - N/A   Mostly Cloudy
5:50 AM 76.3 °F - 73.9 °F 92% 29.88 in 10.0 mi Calm Calm - N/A   Mostly Cloudy
6:10 AM 76.3 °F - 73.9 °F 92% 29.89 in 10.0 mi Calm Calm - N/A   Overcast
6:30 AM 76.6 °F - 73.9 °F 91% 29.90 in 10.0 mi SW 3.5 mph - N/A   Overcast
6:50 AM 76.6 °F - 74.3 °F 92% 29.90 in 10.0 mi Calm Calm - N/A   Mostly Cloudy
7:10 AM 77.0 °F - 74.3 °F 91% 29.91 in 10.0 mi Calm Calm - N/A   Scattered Clouds
7:30 AM 77.0 °F - 74.3 °F 91% 29.91 in 10.0 mi Calm Calm - N/A   Scattered Clouds
7:50 AM 77.0 °F - 74.5 °F 92% 29.91 in 10.0 mi Calm Calm - N/A   Scattered Clouds
8:10 AM 77.0 °F - 74.5 °F 92% 29.91 in 10.0 mi Calm Calm - N/A   Scattered Clouds
8:30 AM 77.0 °F - 74.8 °F 93% 29.92 in 10.0 mi Calm Calm - N/A   Clear
9:10 AM 77.0 °F - 74.7 °F 92% 29.92 in 10.0 mi Calm Calm - N/A   Mostly Cloudy
9:30 AM 77.4 °F - 74.3 °F 90% 29.92 in 10.0 mi Calm Calm - N/A   Mostly Cloudy
9:50 AM 77.5 °F - 73.8 °F 88% 29.92 in 10.0 mi West 5.8 mph - N/A   Scattered Clouds
10:10 AM 77.9 °F - 72.3 °F 83% 29.91 in 10.0 mi West 3.5 mph - N/A   Scattered Clouds
10:30 AM 78.1 °F - 71.8 °F 81% 29.92 in 10.0 mi NW 6.9 mph - N/A   Scattered Clouds
10:50 AM 78.1 °F - 72.3 °F 82% 29.92 in 10.0 mi NNW 5.8 mph - N/A   Scattered Clouds
11:10 AM 78.8 °F - 70.7 °F 76% 29.93 in 10.0 mi NNW 4.6 mph - N/A   Scattered Clouds
11:30 AM 79.0 °F - 70.5 °F 75% 29.93 in 10.0 mi North 4.6 mph - N/A   Clear
11:50 AM 81.1 °F 84.9 °F 70.3 °F 70% 29.93 in 10.0 mi NE 6.9 mph - N/A   Scattered Clouds
12:10 PM 81.5 °F 84.9 °F 69.6 °F 67% 29.93 in 10.0 mi North 6.9 mph - N/A   Scattered Clouds
12:30 PM 81.9 °F 85.6 °F 70.0 °F 67% 29.92 in 10.0 mi NNW 5.8 mph - N/A   Mostly Cloudy
12:50 PM 82.0 °F 85.9 °F 70.0 °F 67% 29.92 in 10.0 mi NNE 4.6 mph - N/A   Scattered Clouds
1:05 PM 82.0 °F 86.1 °F 70.3 °F 68% 29.91 in 10.0 mi North 5.8 mph - N/A   Scattered Clouds
1:30 PM 83.8 °F 89.2 °F 72.0 °F 67% 29.91 in 10.0 mi Calm Calm - N/A   Scattered Clouds
1:50 PM 83.7 °F 88.6 °F 71.4 °F 66% 29.91 in 10.0 mi NNW 5.8 mph - N/A   Scattered Clouds
2:10 PM 84.4 °F 89.0 °F 70.7 °F 63% 29.90 in 10.0 mi North 4.6 mph - N/A   Scattered Clouds
2:30 PM 85.1 °F 89.8 °F 70.3 °F 61% 29.90 in 10.0 mi Calm Calm - N/A   Scattered Clouds
2:50 PM 85.1 °F 89.8 °F 70.5 °F 61% 29.90 in 10.0 mi NNE 5.8 mph - N/A   Scattered Clouds
3:10 PM 84.2 °F 88.1 °F 69.6 °F 61% 29.90 in 10.0 mi Calm Calm - N/A   Scattered Clouds
3:30 PM 85.6 °F 90.4 °F 70.5 °F 60% 29.89 in 10.0 mi NNW 3.5 mph - N/A   Scattered Clouds
3:50 PM 86.2 °F 91.1 °F 70.2 °F 59% 29.88 in 10.0 mi Calm Calm - N/A   Scattered Clouds
4:10 PM 85.5 °F 89.1 °F 68.7 °F 57% 29.88 in 10.0 mi NE 3.5 mph - N/A   Scattered Clouds
4:30 PM 85.1 °F 89.8 °F 70.5 °F 61% 29.88 in 10.0 mi Calm Calm - N/A   Mostly Cloudy
4:50 PM 86.0 °F 89.7 °F 68.9 °F 56% 29.89 in 10.0 mi Calm Calm - N/A   Scattered Clouds
5:10 PM 84.7 °F 88.8 °F 69.4 °F 60% 29.89 in 10.0 mi Calm Calm - N/A   Overcast
5:30 PM 84.7 °F 90.0 °F 71.2 °F 64% 29.88 in 10.0 mi Calm Calm - N/A   Mostly Cloudy
5:50 PM 84.6 °F 90.0 °F 71.6 °F 65% 29.88 in 10.0 mi Calm Calm - N/A   Scattered Clouds
6:10 PM 83.7 °F 89.2 °F 72.1 °F 68% 29.88 in 10.0 mi Calm Calm - N/A   Clear
6:30 PM 83.8 °F 90.4 °F 73.4 °F 71% 29.89 in 10.0 mi Calm Calm - N/A   Clear
6:50 PM 82.6 °F 88.8 °F 73.8 °F 75% 29.89 in 10.0 mi Calm Calm - N/A   Clear
7:10 PM 81.9 °F 88.5 °F 75.2 °F 80% 29.90 in 10.0 mi Calm Calm - N/A   Scattered Clouds
7:30 PM 81.5 °F 88.7 °F 76.5 °F 85% 29.90 in 10.0 mi Calm Calm - N/A   Scattered Clouds
7:50 PM 81.1 °F 87.2 °F 75.2 °F 82% 29.90 in 10.0 mi Calm Calm - N/A   Clear
8:10 PM 80.6 °F 85.4 °F 73.6 °F 79% 29.91 in 10.0 mi Calm Calm - N/A   Scattered Clouds
8:30 PM 81.3 °F 86.8 °F 73.8 °F 78% 29.91 in 10.0 mi ESE 3.5 mph - N/A   Overcast
8:50 PM 80.4 °F 85.1 °F 73.8 °F 80% 29.90 in 10.0 mi Calm Calm - N/A   Overcast
9:10 PM 79.7 °F - 73.4 °F 81% 29.90 in 10.0 mi Calm Calm - N/A   Mostly Cloudy
9:30 PM 79.7 °F - 73.8 °F 82% 29.91 in 10.0 mi Calm Calm - N/A   Scattered Clouds
9:50 PM 78.8 °F - 73.8 °F 84% 29.91 in 10.0 mi Calm Calm - N/A   Mostly Cloudy
10:10 PM 79.9 °F - 73.8 °F 81% 29.91 in 10.0 mi Calm Calm - N/A   Mostly Cloudy
10:30 PM 79.7 °F - 73.8 °F 82% 29.90 in 10.0 mi Calm Calm - N/A   Scattered Clouds
10:50 PM 78.3 °F - 74.3 °F 88% 29.90 in 10.0 mi Calm Calm - N/A   Clear
11:10 PM 78.4 °F - 74.5 °F 88% 29.91 in 10.0 mi NE 3.5 mph - N/A   Mostly Cloudy
11:35 PM 78.8 °F - 73.6 °F 84% 29.91 in 10.0 mi ENE 3.5 mph - N/A   Overcast
11:55 PM 77.9 °F - 71.8 °F 81% 29.91 in 10.0 mi Calm Calm - N/A   Overcast